TimeEDT,TemperatureF,Dew PointF,Humidity,Sea Level PressureIn,VisibilityMPH,Wind Direction,Wind SpeedMPH,Gust SpeedMPH,PrecipitationIn,Events,Conditions,WindDirDegrees,DateUTC
12:53 AM,61.0,45.0,56,30.16,10.0,Calm,Calm,-,N/A,,Overcast,0,2013-05-26 04:53:00
1:53 AM,61.0,45.0,56,30.16,10.0,Calm,Calm,-,N/A,,Overcast,0,2013-05-26 05:53:00
2:53 AM,61.0,41.0,48,30.15,10.0,East,3.5,-,N/A,,Overcast,100,2013-05-26 06:53:00
3:53 AM,59.0,37.0,44,30.16,10.0,Calm,Calm,-,N/A,,Overcast,0,2013-05-26 07:53:00
4:53 AM,57.9,37.9,47,30.17,10.0,Calm,Calm,-,0.00,Rain,Light Rain,0,2013-05-26 08:53:00
5:53 AM,55.0,43.0,64,30.19,10.0,NE,4.6,-,0.00,Rain,Light Rain,50,2013-05-26 09:53:00
6:53 AM,54.0,44.1,69,30.20,10.0,East,4.6,-,0.02,Rain,Light Rain,90,2013-05-26 10:53:00
7:53 AM,55.0,48.9,80,30.24,10.0,Calm,Calm,-,0.00,,Overcast,0,2013-05-26 11:53:00
8:53 AM,55.9,46.0,69,30.25,10.0,Calm,Calm,-,N/A,,Overcast,0,2013-05-26 12:53:00
9:53 AM,57.0,44.1,62,30.26,10.0,Calm,Calm,-,N/A,,Overcast,0,2013-05-26 13:53:00
10:53 AM,59.0,48.0,67,30.25,10.0,SW,3.5,-,N/A,,Overcast,220,2013-05-26 14:53:00
11:53 AM,64.9,41.0,42,30.24,10.0,Calm,Calm,-,N/A,,Mostly Cloudy,0,2013-05-26 15:53:00
12:53 PM,66.9,46.9,49,30.23,10.0,Calm,Calm,-,N/A,,Clear,0,2013-05-26 16:53:00
1:53 PM,69.1,45.0,42,30.19,10.0,Variable,3.5,-,N/A,,Clear,0,2013-05-26 17:53:00
2:53 PM,72.0,48.0,43,30.17,10.0,WSW,9.2,-,N/A,,Clear,240,2013-05-26 18:53:00
3:53 PM,73.0,48.9,42,30.15,10.0,Variable,6.9,-,N/A,,Clear,0,2013-05-26 19:53:00
4:53 PM,73.0,48.0,41,30.14,10.0,Calm,Calm,-,N/A,,Clear,0,2013-05-26 20:53:00
5:53 PM,72.0,48.9,44,30.14,10.0,Variable,3.5,-,N/A,,Clear,0,2013-05-26 21:53:00
6:53 PM,72.0,50.0,46,30.14,10.0,South,9.2,-,N/A,,Clear,190,2013-05-26 22:53:00
7:53 PM,70.0,51.1,51,30.14,10.0,South,3.5,-,N/A,,Clear,190,2013-05-26 23:53:00
8:53 PM,66.0,51.1,59,30.16,10.0,Calm,Calm,-,N/A,,Clear,0,2013-05-27 00:53:00
9:53 PM,64.0,52.0,65,30.17,10.0,Calm,Calm,-,N/A,,Clear,0,2013-05-27 01:53:00
10:53 PM,61.0,52.0,72,30.18,10.0,Calm,Calm,-,N/A,,Clear,0,2013-05-27 02:53:00
11:53 PM,59.0,52.0,78,30.18,10.0,Calm,Calm,-,N/A,,Clear,0,2013-05-27 03:53:00